| time (UTC) | temp F | wind direction | speed MPH | gust MPH | rain 1hr in | rain 24hr in | rain mn in | humidity % | barometer mb |
| 20260502170504 | 44 | 285 | 8.0 | 15.0 | 0.00 | 0.00 | 0.00 | 46 | 999.9 |
| 20260502164004 | 45 | 281 | 8.0 | 14.0 | 0.00 | 0.00 | 0.00 | 47 | 1000.0 |
| 20260502163504 | 45 | 271 | 1.0 | 10.0 | 0.00 | 0.00 | 0.00 | 48 | 999.9 |
| 20260502163004 | 45 | 280 | 7.0 | 14.0 | 0.00 | 0.00 | 0.00 | 47 | 999.9 |
| 20260502162504 | 45 | 253 | 5.0 | 14.0 | 0.00 | 0.00 | 0.00 | 46 | 1000.0 |
| 20260502162004 | 45 | 299 | 9.0 | 14.0 | 0.00 | 0.00 | 0.00 | 45 | 999.9 |
| 20260502160503 | 46 | 338 | 8.0 | 15.0 | 0.00 | 0.00 | 0.00 | 44 | 999.7 |
| 20260502152004 | 47 | 303 | 9.0 | 17.0 | 0.00 | 0.00 | 0.00 | 49 | 999.6 |
| 20260502151504 | 48 | 304 | 6.0 | 15.0 | 0.00 | 0.00 | 0.00 | 48 | 999.6 |
| 20260502151004 | 48 | 302 | 7.0 | 15.0 | 0.00 | 0.00 | 0.00 | 48 | 999.5 |
| 20260502150504 | 49 | 269 | 5.0 | 15.0 | 0.00 | 0.00 | 0.00 | 47 | 999.5 |
| 20260502123004 | 51 | 304 | 3.0 | 16.0 | 0.00 | 0.00 | 0.00 | 54 | 999.2 |
| 20260502122504 | 51 | 270 | 3.0 | 12.0 | 0.00 | 0.00 | 0.00 | 54 | 999.1 |
| 20260502121504 | 51 | 261 | 9.0 | 14.0 | 0.00 | 0.00 | 0.00 | 53 | 999.1 |
| 20260502120504 | 51 | 277 | 10.0 | 20.0 | 0.00 | 0.00 | 0.00 | 53 | 999.0 |
| 20260502115003 | 51 | 263 | 9.0 | 20.0 | 0.00 | 0.00 | 0.00 | 53 | 999.2 |
| 20260502114504 | 52 | 278 | 10.0 | 18.0 | 0.00 | 0.00 | 0.00 | 53 | 999.1 |
| 20260502114004 | 52 | 295 | 10.0 | 18.0 | 0.00 | 0.00 | 0.00 | 54 | 999.1 |
| 20260502113504 | 52 | 297 | 9.0 | 20.0 | 0.00 | 0.00 | 0.00 | 57 | 999.2 |
| 20260502113004 | 52 | 277 | 13.0 | 24.0 | 0.00 | 0.00 | 0.00 | 55 | 999.2 |
| 20260502112503 | 52 | 237 | 5.0 | 15.0 | 0.00 | 0.00 | 0.00 | 58 | 999.2 |
| 20260502112004 | 52 | 246 | 3.0 | 18.0 | 0.00 | 0.00 | 0.00 | 59 | 999.2 |
| 20260502111504 | 51 | 260 | 7.0 | 18.0 | 0.00 | 0.00 | 0.00 | 59 | 999.4 |
| 20260502111004 | 51 | 264 | 7.0 | 20.0 | 0.00 | 0.00 | 0.00 | 58 | 999.2 |
| 20260502110503 | 52 | 300 | 12.0 | 20.0 | 0.00 | 0.00 | 0.00 | 57 | 999.2 |
| 20260502110004 | 52 | 286 | 9.0 | 18.0 | 0.00 | 0.00 | 0.00 | 56 | 999.1 |
| 20260502105504 | 52 | 276 | 7.0 | 26.0 | 0.00 | 0.00 | 0.00 | 59 | 999.1 |
| 20260502105003 | 51 | 290 | 5.0 | 21.0 | 0.00 | 0.00 | 0.00 | 60 | 999.1 |
| 20260502104504 | 51 | 263 | 4.0 | 14.0 | 0.00 | 0.00 | 0.00 | 60 | 999.1 |
| 20260502104004 | 51 | 279 | 7.0 | 16.0 | 0.00 | 0.00 | 0.00 | 59 | 999.0 |
| 20260502103503 | 51 | 279 | 5.0 | 13.0 | 0.00 | 0.00 | 0.00 | 60 | 999.1 |
| 20260502103004 | 51 | 265 | 1.0 | 10.0 | 0.00 | 0.00 | 0.00 | 60 | 999.0 |
| 20260502102503 | 51 | 244 | 4.0 | 13.0 | 0.00 | 0.00 | 0.00 | 58 | 999.0 |
| 20260502102003 | 51 | 256 | 5.0 | 14.0 | 0.00 | 0.00 | 0.00 | 59 | 999.0 |
| 20260502101504 | 51 | 241 | 4.0 | 18.0 | 0.00 | 0.00 | 0.00 | 59 | 998.9 |
| 20260502101003 | 51 | 263 | 2.0 | 6.0 | 0.00 | 0.00 | 0.00 | 59 | 998.9 |
| 20260502100503 | 51 | 294 | 1.0 | 15.0 | 0.00 | 0.00 | 0.00 | 59 | 998.9 |
| 20260502091504 | 50 | 288 | 8.0 | 17.0 | 0.00 | 0.00 | 0.00 | 61 | 999.0 |
| 20260502090505 | 50 | 306 | 11.0 | 17.0 | 0.00 | 0.00 | 0.00 | 61 | 998.9 |
| 20260502071004 | 52 | 256 | 4.0 | 18.0 | 0.00 | 0.00 | 0.00 | 60 | 998.6 |
| 20260502065504 | 52 | 293 | 2.0 | 15.0 | 0.00 | 0.00 | 0.00 | 61 | 998.6 |
| 20260502065004 | 51 | 283 | 4.0 | 17.0 | 0.00 | 0.00 | 0.00 | 60 | 998.6 |
| 20260502064004 | 51 | 238 | 10.0 | 20.0 | 0.00 | 0.00 | 0.00 | 60 | 998.6 |
| 20260502062504 | 51 | 253 | 2.0 | 14.0 | 0.00 | 0.00 | 0.00 | 61 | 998.6 |
| 20260502062005 | 51 | 263 | 6.0 | 14.0 | 0.00 | 0.00 | 0.00 | 61 | 998.6 |
| 20260502061504 | 51 | 240 | 6.0 | 14.0 | 0.00 | 0.00 | 0.00 | 61 | 998.6 |
| 20260502061004 | 51 | 267 | 3.0 | 15.0 | 0.00 | 0.00 | 0.00 | 61 | 998.5 |
| 20260502060504 | 51 | 253 | 4.0 | 17.0 | 0.00 | 0.00 | 0.00 | 61 | 998.5 |
| 20260502060004 | 50 | 264 | 4.0 | 21.0 | 0.00 | 0.00 | 0.00 | 61 | 998.6 |
| 20260502055504 | 50 | 246 | 5.0 | 17.0 | 0.00 | 0.00 | 0.00 | 62 | 998.7 |
| 20260502055003 | 50 | 232 | 5.0 | 16.0 | 0.00 | 0.00 | 0.00 | 62 | 998.7 |
| 20260502054504 | 50 | 299 | 4.0 | 15.0 | 0.00 | 0.00 | 0.00 | 62 | 998.9 |
| 20260502053504 | 50 | 261 | 3.0 | 18.0 | 0.00 | 0.00 | 0.00 | 62 | 999.0 |
| 20260502052503 | 50 | 283 | 1.0 | 7.0 | 0.00 | 0.00 | 0.00 | 63 | 999.1 |
| 20260502052004 | 49 | 293 | 3.0 | 12.0 | 0.00 | 0.00 | 0.00 | 63 | 999.1 |
| 20260502051504 | 49 | 288 | 3.0 | 12.0 | 0.00 | 0.00 | 0.00 | 63 | 999.2 |
| 20260502051004 | 49 | 251 | 6.0 | 16.0 | 0.00 | 0.00 | 0.00 | 64 | 999.3 |
| 20260502050504 | 49 | 297 | 9.0 | 13.0 | 0.00 | 0.00 | 0.00 | 64 | 999.5 |
| 20260502050004 | 49 | 257 | 7.0 | 20.0 | 0.00 | 0.00 | 0.00 | 64 | 999.4 |
| 20260502045503 | 49 | 256 | 5.0 | 13.0 | 0.00 | 0.00 | 0.00 | 64 | 999.5 |
| 20260502044504 | 49 | 214 | 3.0 | 10.0 | 0.00 | 0.00 | 0.00 | 63 | 999.4 |
| 20260502044004 | 48 | 236 | 1.0 | 9.0 | 0.00 | 0.00 | 0.00 | 64 | 999.4 |
| 20260502043504 | 48 | 208 | 2.0 | 7.0 | 0.00 | 0.00 | 0.00 | 64 | 999.4 |
| 20260502042504 | 48 | 209 | 0.0 | 0.0 | 0.00 | 0.00 | 0.00 | 63 | 999.6 |
| 20260502042004 | 48 | 210 | 0.0 | 0.0 | 0.00 | 0.00 | 0.00 | 63 | 999.8 |
| 20260502041504 | 48 | 211 | 0.0 | 0.0 | 0.00 | 0.00 | 0.00 | 63 | 999.8 |
| 20260502041004 | 48 | 219 | 2.0 | 6.0 | 0.00 | 0.00 | 0.00 | 63 | 999.9 |
| 20260502040504 | 47 | 221 | 0.0 | 0.0 | 0.00 | 0.00 | 0.00 | 64 | 999.9 |
| 20260502040004 | 47 | 220 | 0.0 | 7.0 | 0.00 | 0.00 | 0.00 | 63 | 999.9 |
| 20260502035503 | 47 | 217 | 0.0 | 0.0 | 0.00 | 0.00 | 0.00 | 63 | 999.9 |
| 20260502035004 | 47 | 217 | 0.0 | 6.0 | 0.00 | 0.00 | 0.00 | 63 | 999.9 |
| 20260502034505 | 47 | 271 | 0.0 | 7.0 | 0.00 | 0.00 | 0.00 | 63 | 1000.0 |
| 20260502034005 | 47 | 225 | 1.0 | 7.0 | 0.00 | 0.00 | 0.00 | 62 | 1000.0 |
| 20260502033504 | 47 | 240 | 0.0 | 8.0 | 0.00 | 0.00 | 0.00 | 62 | 1000.1 |
| 20260502032504 | 47 | 202 | 0.0 | 6.0 | 0.00 | 0.00 | 0.00 | 62 | 1000.1 |
| 20260502032004 | 47 | 202 | 0.0 | 0.0 | 0.00 | 0.00 | 0.00 | 61 | 1000.3 |
| 20260502031504 | 47 | 202 | 1.0 | 3.0 | 0.00 | 0.00 | 0.00 | 61 | 1000.3 |
| 20260502031004 | 47 | 201 | 0.0 | 3.0 | 0.00 | 0.00 | 0.00 | 61 | 1000.4 |
| 20260502030504 | 47 | 198 | 0.0 | 5.0 | 0.00 | 0.00 | 0.00 | 61 | 1000.4 |
| 20260502030004 | 48 | 219 | 0.0 | 1.0 | 0.00 | 0.00 | 0.00 | 61 | 1000.4 |
| 20260502025503 | 48 | 219 | 1.0 | 5.0 | 0.00 | 0.00 | 0.00 | 61 | 1000.4 |
| 20260502025004 | 48 | 224 | 1.0 | 3.0 | 0.00 | 0.00 | 0.00 | 60 | 1000.6 |
| 20260502023504 | 48 | 245 | 1.0 | 6.0 | 0.00 | 0.00 | 0.00 | 60 | 1000.8 |
| 20260502023004 | 48 | 244 | 0.0 | 5.0 | 0.00 | 0.00 | 0.00 | 60 | 1000.9 |
| 20260502022504 | 48 | 245 | 0.0 | 0.0 | 0.00 | 0.00 | 0.00 | 60 | 1001.0 |
| 20260502022004 | 48 | 272 | 3.0 | 8.0 | 0.00 | 0.00 | 0.00 | 60 | 1001.0 |
| 20260502021503 | 47 | 257 | 2.0 | 3.0 | 0.00 | 0.00 | 0.00 | 60 | 1001.1 |
| 20260502021004 | 47 | 235 | 1.0 | 6.0 | 0.00 | 0.00 | 0.00 | 60 | 1001.3 |
| 20260502020504 | 47 | 242 | 0.0 | 3.0 | 0.00 | 0.00 | 0.00 | 60 | 1001.4 |
| 20260502020004 | 47 | 264 | 1.0 | 5.0 | 0.00 | 0.00 | 0.00 | 60 | 1001.5 |
| 20260502015504 | 47 | 250 | 1.0 | 3.0 | 0.00 | 0.00 | 0.00 | 60 | 1001.5 |
| 20260502015004 | 47 | 232 | 0.0 | 2.0 | 0.00 | 0.00 | 0.00 | 60 | 1001.6 |
| 20260502014503 | 47 | 231 | 0.0 | 0.0 | 0.00 | 0.00 | 0.00 | 59 | 1001.6 |
| 20260502014004 | 48 | 229 | 0.0 | 0.0 | 0.00 | 0.00 | 0.00 | 59 | 1001.6 |
| 20260502013504 | 48 | 229 | 0.0 | 0.0 | 0.00 | 0.00 | 0.00 | 59 | 1001.7 |
| 20260502013004 | 48 | 229 | 0.0 | 3.0 | 0.00 | 0.00 | 0.00 | 59 | 1001.6 |
| 20260502012504 | 48 | 237 | 0.0 | 5.0 | 0.00 | 0.00 | 0.00 | 58 | 1001.5 |
| 20260502012004 | 48 | 248 | 0.0 | 10.0 | 0.00 | 0.00 | 0.00 | 58 | 1001.6 |
| 20260502011004 | 48 | 209 | 1.0 | 6.0 | 0.00 | 0.00 | 0.00 | 58 | 1001.7 |
| 20260502010003 | 48 | 205 | 0.0 | 5.0 | 0.00 | 0.00 | 0.00 | 58 | 1001.9 |
| 20260502005503 | 48 | 215 | 0.0 | 3.0 | 0.00 | 0.00 | 0.00 | 58 | 1002.0 |
| 20260502005003 | 48 | 222 | 1.0 | 7.0 | 0.00 | 0.00 | 0.00 | 58 | 1002.0 |
| 20260502004503 | 47 | 239 | 2.0 | 6.0 | 0.00 | 0.00 | 0.00 | 58 | 1002.1 |
| 20260502004002 | 47 | 207 | 1.0 | 5.0 | 0.00 | 0.00 | 0.00 | 58 | 1002.1 |
| 20260502003504 | 47 | 212 | 2.0 | 8.0 | 0.00 | 0.00 | 0.00 | 59 | 1002.2 |
| 20260502003003 | 47 | 195 | 0.0 | 0.0 | 0.00 | 0.00 | 0.00 | 58 | 1002.3 |
| 20260502002504 | 47 | 195 | 1.0 | 3.0 | 0.00 | 0.00 | 0.00 | 58 | 1002.3 |
| 20260502002002 | 47 | 247 | 0.0 | 0.0 | 0.00 | 0.00 | 0.00 | 59 | 1002.4 |
| 20260502001503 | 47 | 247 | 2.0 | 6.0 | 0.00 | 0.00 | 0.00 | 58 | 1002.5 |
| 20260502001003 | 47 | 214 | 0.0 | 5.0 | 0.00 | 0.00 | 0.00 | 58 | 1002.6 |
| 20260502000504 | 47 | 249 | 0.0 | 5.0 | 0.00 | 0.00 | 0.00 | 59 | 1002.7 |
| 20260501235504 | 47 | 224 | 1.0 | 6.0 | 0.00 | 0.00 | 0.00 | 59 | 1002.8 |
| 20260501234506 | 47 | 224 | 0.0 | 0.0 | 0.00 | 0.00 | 0.00 | 61 | 1003.0 |
| 20260501233504 | 47 | 223 | 0.0 | 0.0 | 0.00 | 0.00 | 0.00 | 59 | 1003.1 |
| 20260501233006 | 47 | 223 | 1.0 | 5.0 | 0.00 | 0.00 | 0.00 | 59 | 1003.2 |
| 20260501232504 | 47 | 223 | 0.0 | 0.0 | 0.00 | 0.00 | 0.00 | 58 | 1003.2 |
| 20260501232003 | 47 | 221 | 0.0 | 3.0 | 0.00 | 0.00 | 0.00 | 58 | 1003.2 |
| 20260501231503 | 47 | 221 | 1.0 | 5.0 | 0.00 | 0.00 | 0.00 | 58 | 1003.2 |
| 20260501231003 | 47 | 221 | 0.0 | 2.0 | 0.00 | 0.00 | 0.00 | 59 | 1003.3 |
| 20260501230003 | 47 | 221 | 0.0 | 0.0 | 0.00 | 0.00 | 0.00 | 60 | 1003.3 |
| 20260501225503 | 47 | 221 | 0.0 | 0.0 | 0.00 | 0.00 | 0.00 | 61 | 1003.4 |
| 20260501225003 | 46 | 268 | 1.0 | 8.0 | 0.00 | 0.00 | 0.00 | 62 | 1003.5 |
| 20260501224503 | 45 | 240 | 2.0 | 8.0 | 0.00 | 0.00 | 0.00 | 64 | 1003.6 |
| 20260501224003 | 45 | 240 | 0.0 | 8.0 | 0.00 | 0.00 | 0.00 | 66 | 1003.6 |
| 20260501223503 | 44 | 227 | 0.0 | 0.0 | 0.00 | 0.00 | 0.00 | 69 | 1003.7 |
| 20260501223003 | 43 | 228 | 1.0 | 6.0 | 0.00 | 0.00 | 0.00 | 72 | 1003.9 |
| 20260501222503 | 42 | 219 | 0.0 | 5.0 | 0.00 | 0.00 | 0.00 | 76 | 1003.8 |
| 20260501222003 | 40 | 219 | 1.0 | 3.0 | 0.00 | 0.00 | 0.00 | 80 | 1003.9 |
| 20260501221503 | 40 | 207 | 0.0 | 3.0 | 0.00 | 0.00 | 0.00 | 83 | 1004.0 |
| 20260501221003 | 39 | 205 | 0.0 | 3.0 | 0.00 | 0.00 | 0.00 | 83 | 1004.1 |
| 20260501220503 | 39 | 205 | 0.0 | 0.0 | 0.00 | 0.00 | 0.00 | 83 | 1004.2 |
| 20260501220003 | 39 | 205 | 0.0 | 0.0 | 0.00 | 0.00 | 0.00 | 83 | 1004.2 |
| 20260501215503 | 39 | 205 | 0.0 | 0.0 | 0.00 | 0.00 | 0.00 | 83 | 1004.3 |
| 20260501215002 | 39 | 205 | 0.0 | 0.0 | 0.00 | 0.00 | 0.00 | 83 | 1004.4 |
| 20260501214503 | 39 | 205 | 0.0 | 0.0 | 0.00 | 0.00 | 0.00 | 82 | 1004.4 |
| 20260501214003 | 39 | 205 | 0.0 | 0.0 | 0.00 | 0.00 | 0.00 | 83 | 1004.4 |
| 20260501213502 | 39 | 205 | 0.0 | 0.0 | 0.00 | 0.00 | 0.00 | 83 | 1004.3 |
| 20260501213003 | 39 | 205 | 0.0 | 0.0 | 0.00 | 0.00 | 0.00 | 83 | 1004.6 |
| 20260501212503 | 39 | 205 | 0.0 | 0.0 | 0.00 | 0.00 | 0.00 | 83 | 1004.6 |
| 20260501212003 | 39 | 205 | 0.0 | 0.0 | 0.00 | 0.00 | 0.00 | 83 | 1004.7 |
| 20260501211503 | 39 | 205 | 0.0 | 0.0 | 0.00 | 0.00 | 0.00 | 83 | 1004.8 |
| 20260501211002 | 39 | 205 | 0.0 | 0.0 | 0.00 | 0.00 | 0.00 | 83 | 1004.8 |
| 20260501210503 | 39 | 205 | 0.0 | 0.0 | 0.00 | 0.00 | 0.00 | 83 | 1004.9 |
| 20260501210003 | 39 | 205 | 0.0 | 0.0 | 0.00 | 0.00 | 0.00 | 83 | 1004.9 |
| 20260501205503 | 39 | 205 | 0.0 | 0.0 | 0.00 | 0.00 | 0.00 | 82 | 1005.0 |
| 20260501205003 | 38 | 205 | 0.0 | 0.0 | 0.00 | 0.00 | 0.00 | 81 | 1005.1 |
| 20260501204503 | 38 | 205 | 0.0 | 0.0 | 0.00 | 0.00 | 0.00 | 81 | 1005.2 |
| 20260501202502 | 38 | 205 | 0.0 | 0.0 | 0.00 | 0.00 | 0.00 | 80 | 1005.2 |
| 20260501201503 | 38 | 205 | 0.0 | 0.0 | 0.00 | 0.00 | 0.00 | 80 | 1005.2 |
| 20260501201003 | 39 | 205 | 0.0 | 0.0 | 0.00 | 0.00 | 0.00 | 80 | 1005.3 |
| 20260501200503 | 39 | 205 | 0.0 | 0.0 | 0.00 | 0.00 | 0.00 | 80 | 1005.3 |
| 20260501200003 | 39 | 205 | 0.0 | 0.0 | 0.00 | 0.00 | 0.00 | 79 | 1005.4 |
| 20260501195503 | 39 | 205 | 0.0 | 0.0 | 0.00 | 0.00 | 0.00 | 79 | 1005.4 |
| 20260501194503 | 40 | 205 | 0.0 | 0.0 | 0.00 | 0.00 | 0.00 | 77 | 1005.5 |
| 20260501194003 | 40 | 205 | 0.0 | 0.0 | 0.00 | 0.00 | 0.00 | 77 | 1005.5 |
| 20260501193503 | 40 | 205 | 0.0 | 0.0 | 0.00 | 0.00 | 0.00 | 77 | 1005.5 |
| 20260501193003 | 40 | 205 | 0.0 | 0.0 | 0.00 | 0.00 | 0.00 | 76 | 1005.4 |
| 20260501192503 | 41 | 205 | 0.0 | 0.0 | 0.00 | 0.00 | 0.00 | 75 | 1005.5 |
| 20260501192002 | 41 | 205 | 0.0 | 0.0 | 0.00 | 0.00 | 0.00 | 74 | 1005.5 |
| 20260501191503 | 42 | 205 | 0.0 | 0.0 | 0.00 | 0.00 | 0.00 | 73 | 1005.5 |
| 20260501190503 | 43 | 205 | 0.0 | 0.0 | 0.00 | 0.00 | 0.00 | 72 | 1005.4 |
| 20260501190003 | 44 | 205 | 0.0 | 0.0 | 0.00 | 0.00 | 0.00 | 70 | 1005.5 |
| 20260501185503 | 44 | 205 | 0.0 | 0.0 | 0.00 | 0.00 | 0.00 | 69 | 1005.5 |
| 20260501185003 | 45 | 205 | 0.0 | 0.0 | 0.00 | 0.00 | 0.00 | 68 | 1005.5 |
| 20260501184004 | 47 | 205 | 0.0 | 0.0 | 0.00 | 0.00 | 0.00 | 65 | 1005.6 |
| 20260501183503 | 48 | 205 | 0.0 | 0.0 | 0.00 | 0.00 | 0.00 | 64 | 1005.7 |
| 20260501183003 | 48 | 205 | 0.0 | 0.0 | 0.00 | 0.00 | 0.00 | 64 | 1005.6 |
| 20260501182003 | 49 | 205 | 0.0 | 0.0 | 0.00 | 0.00 | 0.00 | 61 | 1005.7 |
| 20260501180503 | 52 | 205 | 0.0 | 0.0 | 0.00 | 0.00 | 0.00 | 55 | 1005.9 |
| 20260501180003 | 52 | 205 | 0.0 | 0.0 | 0.00 | 0.00 | 0.00 | 52 | 1006.0 |